When you browse on this site, cookies collect data to enhance your experience and personalize the content and advertising you see.
Visit our Privacy Policy to learn more. By continuing to use the site, you agree to this use of cookies and data.

Stündliche Wetter Chichester

Heute, 9 August, Sonntag

Zeit Temperatur Niederschläge Wind Luftdruck Luftfeuchtigkeit
00:00 +20°C° 0 mm 4 m/S 762 mmHg 80%
01:00 +20°C° 0 mm 4 m/S 762 mmHg 81%
02:00 +19°C° 0 mm 5 m/S 762 mmHg 82%
03:00 +19°C° 0 mm 5 m/S 761 mmHg 83%
04:00 +19°C° 0 mm 5 m/S 761 mmHg 83%
05:00 +20°C° 0 mm 5 m/S 761 mmHg 82%
06:00 +20°C° 0 mm 5 m/S 762 mmHg 82%
07:00 +21°C° 0 mm 4 m/S 762 mmHg 76%
08:00 +23°C° 0 mm 4 m/S 762 mmHg 70%
09:00 +26°C° 0 mm 4 m/S 762 mmHg 65%
10:00 +27°C° 0 mm 3 m/S 761 mmHg 59%
11:00 +29°C° 0 mm 3 m/S 761 mmHg 54%
12:00 +30°C° 0 mm 3 m/S 761 mmHg 50%
13:00 +31°C° 0 mm 3 m/S 761 mmHg 48%
14:00 +32°C° 0 mm 2 m/S 760 mmHg 45%
15:00 +32°C° 0 mm 2 m/S 760 mmHg 43%
16:00 +31°C° 0 mm 2 m/S 760 mmHg 47%
17:00 +31°C° 0 mm 2 m/S 759 mmHg 50%
18:00 +30°C° 0 mm 2 m/S 759 mmHg 54%
19:00 +28°C° 0 mm 3 m/S 759 mmHg 59%
20:00 +26°C° 0 mm 3 m/S 759 mmHg 64%
21:00 +24°C° 0 mm 3 m/S 759 mmHg 69%
22:00 +22°C° 0 mm 4 m/S 759 mmHg 74%
23:00 +22°C° 0 mm 4 m/S 759 mmHg 79%

Morgen, 10 August, Montag

Zeit Temperatur Niederschläge Wind Luftdruck Luftfeuchtigkeit
00:00 +21°C° 0 mm 4 m/S 759 mmHg 83%
01:00 +21°C° 0.1 mm 4 m/S 759 mmHg 84%
02:00 +21°C° 0.1 mm 4 m/S 758 mmHg 85%
03:00 +21°C° 0.1 mm 4 m/S 758 mmHg 86%
04:00 +21°C° 0.2 mm 4 m/S 758 mmHg 86%
05:00 +21°C° 0.2 mm 4 m/S 758 mmHg 86%
06:00 +21°C° 0.2 mm 4 m/S 757 mmHg 86%
07:00 +22°C° 0.1 mm 4 m/S 758 mmHg 81%
08:00 +25°C° 0.1 mm 5 m/S 758 mmHg 75%
09:00 +27°C° 0.1 mm 5 m/S 758 mmHg 70%
10:00 +28°C° 0 mm 5 m/S 758 mmHg 64%
11:00 +29°C° 0 mm 5 m/S 758 mmHg 59%
12:00 +32°C° 0 mm 5 m/S 758 mmHg 53%
13:00 +30°C° 0 mm 4 m/S 758 mmHg 54%
14:00 +30°C° 0 mm 4 m/S 757 mmHg 55%
15:00 +30°C° 0 mm 4 m/S 757 mmHg 56%
16:00 +28°C° 0 mm 3 m/S 757 mmHg 59%
17:00 +27°C° 0 mm 3 m/S 757 mmHg 62%
18:00 +26°C° 0 mm 3 m/S 757 mmHg 66%
19:00 +25°C° 0 mm 2 m/S 757 mmHg 72%
20:00 +23°C° 0 mm 2 m/S 757 mmHg 77%
21:00 +20°C° 0 mm 2 m/S 758 mmHg 83%
22:00 +21°C° 0.1 mm 1 m/S 758 mmHg 84%
23:00 +21°C° 0.1 mm 1 m/S 758 mmHg 85%

übermorgen, 11 August, Dienstag

Zeit Temperatur Niederschläge Wind Luftdruck Luftfeuchtigkeit
00:00 +21°C° 0.1 mm 1 m/S 758 mmHg 86%
01:00 +21°C° 0.4 mm 1 m/S 758 mmHg 86%
02:00 +21°C° 0.4 mm 1 m/S 758 mmHg 86%
03:00 +21°C° 0.4 mm 1 m/S 758 mmHg 86%
04:00 +22°C° 0 mm 1 m/S 758 mmHg 85%
05:00 +22°C° 0 mm 1 m/S 758 mmHg 83%
06:00 +23°C° 0 mm 1 m/S 758 mmHg 82%
07:00 +25°C° 0 mm 2 m/S 758 mmHg 75%
08:00 +26°C° 0 mm 2 m/S 758 mmHg 69%
09:00 +28°C° 0 mm 2 m/S 758 mmHg 62%
10:00 +29°C° 0 mm 2 m/S 758 mmHg 58%
11:00 +30°C° 0 mm 3 m/S 758 mmHg 55%
12:00 +31°C° 0 mm 3 m/S 758 mmHg 51%
13:00 +31°C° 0.1 mm 3 m/S 758 mmHg 50%
14:00 +31°C° 0.1 mm 2 m/S 758 mmHg 49%
15:00 +31°C° 0.1 mm 2 m/S 758 mmHg 48%
16:00 +31°C° 0.2 mm 2 m/S 758 mmHg 51%
17:00 +30°C° 0.2 mm 2 m/S 758 mmHg 55%
18:00 +29°C° 0.2 mm 2 m/S 757 mmHg 58%
19:00 +27°C° 0.1 mm 1 m/S 758 mmHg 64%
20:00 +25°C° 0.1 mm 1 m/S 758 mmHg 70%
21:00 +23°C° 0.1 mm 1 m/S 758 mmHg 76%
22:00 +23°C° 0.1 mm 1 m/S 758 mmHg 78%
23:00 +23°C° 0.1 mm 1 m/S 758 mmHg 80%

12 August, Mittwoch

Zeit Temperatur Niederschläge Wind Luftdruck Luftfeuchtigkeit
00:00 +22°C° 0.1 mm 1 m/S 758 mmHg 82%
01:00 +22°C° 0 mm 1 m/S 758 mmHg 83%
02:00 +22°C° 0 mm 1 m/S 758 mmHg 84%
03:00 +22°C° 0 mm 1 m/S 757 mmHg 84%
04:00 +22°C° 0 mm 1 m/S 757 mmHg 84%
05:00 +22°C° 0 mm 1 m/S 757 mmHg 83%
06:00 +23°C° 0 mm 1 m/S 757 mmHg 83%
07:00 +25°C° 0 mm 1 m/S 757 mmHg 76%
08:00 +26°C° 0 mm 1 m/S 757 mmHg 69%
09:00 +28°C° 0 mm 1 m/S 757 mmHg 63%
10:00 +30°C° 0 mm 2 m/S 757 mmHg 58%
11:00 +31°C° 0 mm 2 m/S 757 mmHg 53%
12:00 +32°C° 0 mm 2 m/S 757 mmHg 47%
13:00 +33°C° 0.3 mm 3 m/S 756 mmHg 49%
14:00 +32°C° 0.3 mm 4 m/S 756 mmHg 50%
15:00 +32°C° 0.3 mm 4 m/S 756 mmHg 52%
16:00 +29°C° 0.4 mm 4 m/S 756 mmHg 58%
17:00 +28°C° 0.4 mm 3 m/S 756 mmHg 65%
18:00 +26°C° 0.4 mm 2 m/S 755 mmHg 71%
19:00 +25°C° 0 mm 2 m/S 755 mmHg 75%
20:00 +24°C° 0 mm 2 m/S 756 mmHg 79%
21:00 +23°C° 0 mm 2 m/S 756 mmHg 83%
22:00 +23°C° 0.2 mm 2 m/S 755 mmHg 86%
23:00 +22°C° 0.2 mm 1 m/S 755 mmHg 88%

13 August, Donnerstag

Zeit Temperatur Niederschläge Wind Luftdruck Luftfeuchtigkeit
00:00 +22°C° 0.2 mm 1 m/S 755 mmHg 90%
01:00 +22°C° 0 mm 1 m/S 754 mmHg 91%
02:00 +20°C° 0 mm 2 m/S 754 mmHg 92%
03:00 +20°C° 0 mm 2 m/S 754 mmHg 93%
04:00 +20°C° 0 mm 2 m/S 754 mmHg 94%
05:00 +20°C° 0 mm 3 m/S 754 mmHg 94%
06:00 +20°C° 0 mm 3 m/S 754 mmHg 94%
07:00 +21°C° 0 mm 3 m/S 754 mmHg 88%
08:00 +24°C° 0 mm 3 m/S 754 mmHg 82%
09:00 +25°C° 0 mm 3 m/S 754 mmHg 75%
10:00 +25°C° 0.1 mm 4 m/S 754 mmHg 77%
11:00 +23°C° 0.1 mm 4 m/S 754 mmHg 78%
12:00 +23°C° 0.1 mm 5 m/S 754 mmHg 80%
13:00 +25°C° 0 mm 4 m/S 754 mmHg 75%
14:00 +25°C° 0 mm 4 m/S 753 mmHg 70%
15:00 +26°C° 0 mm 3 m/S 753 mmHg 65%
16:00 +25°C° 0.1 mm 3 m/S 753 mmHg 67%
17:00 +25°C° 0.1 mm 2 m/S 753 mmHg 68%
18:00 +24°C° 0.1 mm 2 m/S 753 mmHg 70%
19:00 +23°C° 0.4 mm 2 m/S 753 mmHg 77%
20:00 +21°C° 0.4 mm 2 m/S 753 mmHg 84%
21:00 +19°C° 0.4 mm 2 m/S 753 mmHg 90%
22:00 +19°C° 0.2 mm 2 m/S 753 mmHg 91%
23:00 +19°C° 0.2 mm 2 m/S 753 mmHg 92%

14 August, Freitag

Zeit Temperatur Niederschläge Wind Luftdruck Luftfeuchtigkeit
00:00 +19°C° 0.2 mm 2 m/S 753 mmHg 93%
01:00 +19°C° 0.2 mm 2 m/S 753 mmHg 94%
02:00 +19°C° 0.2 mm 3 m/S 753 mmHg 94%
03:00 +19°C° 0.2 mm 3 m/S 753 mmHg 95%
04:00 +18°C° 0.2 mm 4 m/S 753 mmHg 94%
05:00 +17°C° 0.2 mm 5 m/S 754 mmHg 92%
06:00 +17°C° 0.2 mm 6 m/S 754 mmHg 91%
07:00 +19°C° 0 mm 6 m/S 754 mmHg 85%
08:00 +18°C° 0 mm 7 m/S 755 mmHg 80%
09:00 +20°C° 0 mm 7 m/S 755 mmHg 74%
10:00 +21°C° 0 mm 7 m/S 756 mmHg 70%
11:00 +21°C° 0 mm 7 m/S 756 mmHg 65%
12:00 +22°C° 0 mm 7 m/S 756 mmHg 60%
13:00 +22°C° 0 mm 7 m/S 756 mmHg 61%
14:00 +22°C° 0 mm 7 m/S 756 mmHg 61%
15:00 +22°C° 0 mm 7 m/S 756 mmHg 62%
16:00 +21°C° 0 mm 6 m/S 756 mmHg 61%
17:00 +21°C° 0 mm 5 m/S 757 mmHg 61%
18:00 +20°C° 0 mm 4 m/S 757 mmHg 61%
19:00 +19°C° 0 mm 4 m/S 757 mmHg 68%
20:00 +18°C° 0 mm 3 m/S 757 mmHg 76%
21:00 +16°C° 0 mm 3 m/S 758 mmHg 83%
22:00 +17°C° 0.1 mm 3 m/S 758 mmHg 83%
23:00 +17°C° 0.1 mm 4 m/S 758 mmHg 83%
Mehr zeigen